This demonstration page uses our WeatherBlox Daily Observations layout. Learn more.

Left ArrowRight Arrow

39.51506, -84.39828

Hourly Observations for September 14, 2021

Temp ( °F °C ) Dew Point ( °F °C ) Humidity (%) Winds ( mph kmh ) Pressure ( in mb ) Visibility ( mi km ) Precip ( " mm )
12:15 am 00:15 Clear 68 20 N/A N/A N N/A 30.06 1018 10 16 N/A
12:35 am 00:35 Clear 66 19 N/A N/A N N/A 30.07 1018 10 16 N/A
12:55 am 00:55 Hazy 66 19 N/A N/A N N/A 30.06 1018 7 11 N/A
1:15 am 01:15 Hazy 66 19 N/A N/A N N/A 30.06 1018 7 11 N/A
1:35 am 01:35 Hazy 66 19 N/A N/A N N/A 30.05 1018 7 11 N/A
1:55 am 01:55 Hazy 66 19 N/A N/A N N/A 30.05 1018 4 6 N/A
2:15 am 02:15 Hazy 66 19 N/A N/A N N/A 30.05 1018 5 8 N/A
2:35 am 02:35 Clear with Mist and Fog 64 18 N/A N/A N N/A 30.04 1017 2 3 N/A
2:55 am 02:55 Mostly Cloudy with Haze 66 19 N/A N/A N N/A 30.04 1017 5 8 N/A
3:15 am 03:15 Hazy 66 19 N/A N/A N N/A 30.04 1017 5 8 N/A
3:35 am 03:35 Clear with Mist and Fog 66 19 N/A N/A N N/A 30.04 1017 4 6 N/A
3:55 am 03:55 Partly Cloudy with Mist and Fog 66 19 N/A N/A N N/A 30.03 1017 4 6 N/A
4:15 am 04:15 Clear with Mist and Fog 66 19 N/A N/A N N/A 30.03 1017 2 3 N/A
4:35 am 04:35 Mostly Cloudy with Fog 64 18 N/A N/A N N/A 30.03 1017 0 0 N/A
4:55 am 04:55 Mostly Cloudy with Fog 64 18 N/A N/A N N/A 30.03 1017 0 0 N/A
5:15 am 05:15 Mostly Cloudy with Mist and Fog 64 18 N/A N/A N N/A 30.03 1017 1 1 N/A
5:35 am 05:35 Mostly Cloudy with Fog 64 18 N/A N/A N N/A 30.03 1017 1 1 N/A
5:55 am 05:55 Mostly Cloudy with Fog 64 18 N/A N/A N N/A 30.03 1017 0 0 N/A
6:15 am 06:15 Mostly Cloudy with Fog 64 18 N/A N/A N N/A 30.03 1017 0 0 N/A
6:35 am 06:35 Mostly Cloudy with Fog 64 18 N/A N/A N N/A 30.04 1017 1 1 N/A
6:55 am 06:55 Mostly Cloudy with Fog 64 18 N/A N/A N N/A 30.04 1017 1 1 N/A
7:15 am 07:15 Mostly Cloudy with Fog 63 17 N/A N/A N N/A 30.04 1017 N/A N/A
7:35 am 07:35 Mostly Cloudy with Fog 64 18 N/A N/A N N/A 30.04 1017 N/A N/A
7:55 am 07:55 Mostly Cloudy with Fog 64 18 N/A N/A N N/A 30.04 1017 1 1 N/A
8:15 am 08:15 Mostly Cloudy with Mist and Fog 64 18 N/A N/A W 3 6 30.04 1017 2 3 N/A
8:35 am 08:35 Hazy 68 20 N/A N/A N N/A 30.03 1017 5 8 N/A
8:55 am 08:55 Sunny 70 21 N/A N/A SSW 7 11 30.03 1017 10 16 N/A
9:15 am 09:15 Sunny 72 22.3 71 21.6 96 96 SW 3 6 30.03 1017 10 16 N/A
9:35 am 09:35 Sunny 74 23.1 71 21.6 91 91 SSW 8 13 30.02 1017 10 16 N/A
9:55 am 09:55 Sunny 77 24.8 71 21.6 82 82 SW 9 15 30.01 1016 10 16 N/A
10:15 am 10:15 Sunny 78 25.5 71 21.6 79 79 SW 10 17 30.01 1016 10 16 N/A
10:35 am 10:35 Sunny 79 26.2 71 21.7 76 76 SW 12 19 30.01 1016 10 16 N/A
10:55 am 10:55 Sunny 81 27.1 72 22 74 74 SW 12 19 30.00 1016 10 16 N/A
11:15 am 11:15 Sunny 82 27.5 72 22.2 73 73 SW 13 20 30.00 1016 10 16 N/A
11:35 am 11:35 Partly Cloudy 83 28.1 72 22.2 70 70 SSW 15 24 29.99 1015 10 16 N/A
11:55 am 11:55 Partly Cloudy 82 27.7 71 21.4 69 69 SW 10 17 29.98 1015 10 16 N/A
12:15 pm 12:15 Mostly Cloudy 83 28.2 71 21.6 67 67 WSW 13 20 29.98 1015 10 16 N/A
12:35 pm 12:35 Mostly Cloudy 84 29 71 21.5 64 64 SSW 16 26 29.95 1014 10 16 N/A
12:55 pm 12:55 Mostly Cloudy 84 29 70 21.3 63 63 SSW 12 19 29.95 1014 10 16 N/A
1:15 pm 13:15 Mostly Cloudy 86 30.1 70 21.3 59 59 SW 13 20 29.94 1014 10 16 N/A
1:35 pm 13:35 Partly Cloudy 86 30 69 20.7 57 57 SW 14 22 29.93 1014 10 16 N/A
1:55 pm 13:55 Partly Cloudy 87 30.5 69 20.3 54 54 SW 15 24 29.92 1013 10 16 N/A
2:15 pm 14:15 Partly Cloudy 87 30.8 68 20.2 53 53 SW 20 31 29.92 1013 10 16 N/A
2:35 pm 14:35 Mostly Cloudy 87 30.7 68 19.8 52 52 SW 16 26 29.91 1013 10 16 N/A
2:55 pm 14:55 Partly Cloudy 88 31.1 67 19.7 51 51 SSW 20 31 29.91 1013 10 16 N/A
3:15 pm 15:15 Partly Cloudy 87 30.6 67 19.7 52 52 SW 21 33 29.90 1013 10 16 N/A
3:35 pm 15:35 Mostly Cloudy 88 31 68 19.8 51 51 SW 18 30 29.89 1012 10 16 N/A
3:55 pm 15:55 Partly Cloudy 88 31.2 66 19.1 49 49 SW 16 26 29.88 1012 10 16 N/A
4:15 pm 16:15 Partly Cloudy 88 31.2 67 19.5 50 50 SW 16 26 29.88 1012 10 16 N/A
4:35 pm 16:35 Partly Cloudy 89 31.4 66 19 48 48 SW 14 22 29.87 1011 10 16 N/A
4:55 pm 16:55 Mostly Cloudy 88 31.3 66 19.1 48 48 SW 16 26 29.87 1011 10 16 N/A
5:15 pm 17:15 Partly Cloudy 87 30.5 66 18.8 50 50 SW 21 33 29.86 1011 10 16 N/A
5:35 pm 17:35 Sunny 87 30.6 66 18.8 49 49 SW 16 26 29.86 1011 10 16 N/A
5:55 pm 17:55 Sunny 87 30.5 66 18.9 50 50 SSW 15 24 29.86 1011 10 16 N/A
6:15 pm 18:15 Mostly Cloudy 86 30.1 66 19 51 51 SSW 13 20 29.85 1011 10 16 N/A
6:35 pm 18:35 Cloudy 85 29.3 67 19.6 56 56 SSW 10 17 29.86 1011 10 16 N/A
6:55 pm 18:55 Cloudy 84 28.8 68 19.9 59 59 SSW 10 17 29.86 1011 10 16 N/A
7:15 pm 19:15 Mostly Cloudy 83 28.3 68 20.2 62 62 SW 9 15 29.86 1011 10 16 N/A
7:35 pm 19:35 Partly Cloudy 83 28.2 68 19.9 61 61 SSW 9 15 29.86 1011 10 16 N/A
7:55 pm 19:55 Clear 81 27 68 20.2 66 66 SW 9 15 29.86 1011 10 16 N/A
8:15 pm 20:15 Clear 82 27.8 68 20.1 63 63 SSW 13 20 29.85 1011 10 16 N/A
8:35 pm 20:35 Clear 82 27.8 68 20.1 63 63 SSW 12 19 29.85 1011 10 16 N/A
8:55 pm 20:55 Clear 81 27.2 68 20.2 66 66 SSW 10 17 29.85 1011 10 16 N/A
9:15 pm 21:15 Partly Cloudy 81 27 69 20.4 67 67 WSW 8 13 29.87 1011 10 16 N/A
9:35 pm 21:35 Mostly Cloudy 80 26.4 69 20.6 71 71 SSW 12 19 29.87 1012 10 16 N/A
9:55 pm 21:55 Partly Cloudy 78 25.6 69 20.7 74 74 WSW 7 11 29.88 1012 10 16 N/A
10:15 pm 22:15 Clear 76 24.5 70 21 81 81 SW 6 9 29.88 1012 10 16 N/A
10:35 pm 22:35 Partly Cloudy 76 24.4 70 21.1 82 82 SW 7 11 29.88 1012 10 16 N/A
10:55 pm 22:55 Partly Cloudy 77 25.1 70 21.2 79 79 SW 8 13 29.88 1012 10 16 N/A
11:15 pm 23:15 Clear 76 24.6 71 21.4 82 82 SW 9 15 29.89 1012 10 16 N/A
11:35 pm 23:35 Clear 77 25.2 71 21.4 80 80 SSW 8 13 29.88 1012 10 16 N/A
11:55 pm 23:55 Clear 77 25 71 21.5 81 81 WSW 6 9 29.88 1012 10 16 N/A

Powered by AerisWeather